| time (UTC) | temp C | wind direction | speed KPH | gust KPH | rain 1hr cm | rain 24hr cm | rain mn cm | humidity % | barometer mb |
| 20260504032043 | 18 | 126 | 0.0 | 1.6 | 0.00 | 0.00 | 0.00 | 49 | 1015.1 |
| 20260504031539 | 18 | 126 | 0.0 | 3.2 | 0.00 | 0.00 | 0.00 | 49 | 1015.1 |
| 20260504031039 | 18 | 126 | 0.0 | 6.4 | 0.00 | 0.00 | 0.00 | 49 | 1015.0 |
| 20260504030538 | 19 | 126 | 0.0 | 6.4 | 0.00 | 0.00 | 0.00 | 48 | 1015.0 |
| 20260504030045 | 19 | 126 | 1.6 | 3.2 | 0.00 | 0.00 | 0.00 | 48 | 1015.1 |
| 20260504025538 | 19 | 126 | 0.0 | 3.2 | 0.00 | 0.00 | 0.00 | 47 | 1015.0 |
| 20260504025038 | 19 | 126 | 0.0 | 6.4 | 0.00 | 0.00 | 0.00 | 47 | 1015.1 |
| 20260504024537 | 20 | 126 | 1.6 | 6.4 | 0.00 | 0.00 | 0.00 | 47 | 1015.1 |
| 20260504024038 | 20 | 135 | 1.6 | 6.4 | 0.00 | 0.00 | 0.00 | 46 | 1015.0 |
| 20260504023537 | 20 | 135 | 1.6 | 6.4 | 0.00 | 0.00 | 0.00 | 44 | 1015.1 |
| 20260504023038 | 20 | 135 | 0.0 | 8.0 | 0.00 | 0.00 | 0.00 | 43 | 1015.0 |
| 20260504022538 | 21 | 135 | 0.0 | 8.0 | 0.00 | 0.00 | 0.00 | 43 | 1015.0 |
| 20260504022038 | 21 | 137 | 1.6 | 8.0 | 0.00 | 0.00 | 0.00 | 40 | 1014.9 |
| 20260504021537 | 22 | 147 | 1.6 | 8.0 | 0.00 | 0.00 | 0.00 | 39 | 1014.9 |
| 20260504021037 | 22 | 141 | 4.8 | 8.0 | 0.00 | 0.00 | 0.00 | 39 | 1014.8 |
| 20260504020537 | 22 | 155 | 1.6 | 8.0 | 0.00 | 0.00 | 0.00 | 38 | 1014.9 |
| 20260504020043 | 22 | 153 | 4.8 | 8.0 | 0.00 | 0.00 | 0.00 | 38 | 1014.9 |
| 20260504015536 | 22 | 159 | 3.2 | 8.0 | 0.00 | 0.00 | 0.00 | 38 | 1014.8 |
| 20260504015037 | 22 | 145 | 3.2 | 9.7 | 0.00 | 0.00 | 0.00 | 37 | 1014.8 |
| 20260504014543 | 22 | 159 | 1.6 | 9.7 | 0.00 | 0.00 | 0.00 | 38 | 1014.7 |
| 20260504014036 | 22 | 167 | 4.8 | 9.7 | 0.00 | 0.00 | 0.00 | 38 | 1014.8 |
| 20260504013536 | 22 | 161 | 1.6 | 6.4 | 0.00 | 0.00 | 0.00 | 37 | 1014.7 |
| 20260504013037 | 22 | 161 | 0.0 | 8.0 | 0.00 | 0.00 | 0.00 | 37 | 1014.7 |
| 20260504012536 | 23 | 155 | 3.2 | 8.0 | 0.00 | 0.00 | 0.00 | 36 | 1014.8 |
| 20260504012041 | 23 | 160 | 1.6 | 9.7 | 0.00 | 0.00 | 0.00 | 36 | 1014.7 |
| 20260504011536 | 23 | 168 | 6.4 | 9.7 | 0.00 | 0.00 | 0.00 | 36 | 1014.7 |
| 20260504011034 | 23 | 159 | 3.2 | 9.7 | 0.00 | 0.00 | 0.00 | 36 | 1014.7 |
| 20260504010534 | 23 | 159 | 6.4 | 9.7 | 0.00 | 0.00 | 0.00 | 36 | 1014.8 |
| 20260504010033 | 23 | 147 | 0.0 | 6.4 | 0.00 | 0.00 | 0.00 | 36 | 1014.8 |
| 20260504005532 | 23 | 144 | 0.0 | 9.7 | 0.00 | 0.00 | 0.00 | 36 | 1015.0 |
| 20260504005034 | 23 | 137 | 1.6 | 9.7 | 0.00 | 0.00 | 0.00 | 35 | 1014.9 |
| 20260504004534 | 23 | 152 | 1.6 | 8.0 | 0.00 | 0.00 | 0.00 | 36 | 1014.9 |
| 20260504004031 | 23 | 158 | 3.2 | 8.0 | 0.00 | 0.00 | 0.00 | 35 | 1015.0 |
| 20260504003531 | 23 | 165 | 3.2 | 12.9 | 0.00 | 0.00 | 0.00 | 34 | 1015.1 |
| 20260504003030 | 23 | 133 | 6.4 | 12.9 | 0.00 | 0.00 | 0.00 | 35 | 1015.1 |
| 20260504002530 | 23 | 165 | 4.8 | 12.9 | 0.00 | 0.00 | 0.00 | 35 | 1015.1 |
| 20260504002030 | 23 | 181 | 6.4 | 12.9 | 0.00 | 0.00 | 0.00 | 35 | 1015.2 |
| 20260504001532 | 23 | 155 | 4.8 | 16.1 | 0.00 | 0.00 | 0.00 | 35 | 1015.1 |
| 20260504001033 | 23 | 177 | 8.0 | 17.7 | 0.00 | 0.00 | 0.00 | 35 | 1015.2 |
| 20260504000529 | 23 | 142 | 9.7 | 17.7 | 0.00 | 0.00 | 0.00 | 34 | 1015.1 |
| 20260504000028 | 23 | 157 | 6.4 | 12.9 | 0.00 | 0.00 | 0.00 | 35 | 1015.2 |
| 20260503235528 | 23 | 180 | 6.4 | 12.9 | 0.00 | 0.00 | 0.00 | 34 | 1015.2 |
| 20260503235028 | 23 | 144 | 3.2 | 14.5 | 0.00 | 0.00 | 0.00 | 35 | 1015.3 |
| 20260503234529 | 23 | 161 | 8.0 | 20.9 | 0.00 | 0.00 | 0.00 | 34 | 1015.4 |
| 20260503234028 | 23 | 128 | 8.0 | 20.9 | 0.00 | 0.00 | 0.00 | 34 | 1015.2 |
| 20260503233528 | 23 | 181 | 9.7 | 20.9 | 0.00 | 0.00 | 0.00 | 34 | 1015.2 |
| 20260503233028 | 23 | 167 | 6.4 | 17.7 | 0.00 | 0.00 | 0.00 | 35 | 1015.2 |
| 20260503232527 | 23 | 166 | 8.0 | 17.7 | 0.00 | 0.00 | 0.00 | 35 | 1015.2 |
| 20260503232026 | 23 | 146 | 6.4 | 20.9 | 0.00 | 0.00 | 0.00 | 34 | 1015.4 |
| 20260503231525 | 23 | 127 | 8.0 | 20.9 | 0.00 | 0.00 | 0.00 | 35 | 1015.5 |
| 20260503231026 | 23 | 134 | 9.7 | 16.1 | 0.00 | 0.00 | 0.00 | 34 | 1015.6 |
| 20260503230524 | 23 | 194 | 8.0 | 14.5 | 0.00 | 0.00 | 0.00 | 35 | 1015.6 |
| 20260503230024 | 23 | 145 | 9.7 | 17.7 | 0.00 | 0.00 | 0.00 | 35 | 1015.6 |
| 20260503225526 | 23 | 117 | 6.4 | 17.7 | 0.00 | 0.00 | 0.00 | 35 | 1015.7 |
| 20260503225025 | 23 | 126 | 8.0 | 12.9 | 0.00 | 0.00 | 0.00 | 35 | 1015.7 |
| 20260503224522 | 23 | 161 | 6.4 | 12.9 | 0.00 | 0.00 | 0.00 | 35 | 1015.9 |
| 20260503224020 | 23 | 156 | 8.0 | 14.5 | 0.00 | 0.00 | 0.00 | 35 | 1016.0 |
| 20260503223520 | 23 | 181 | 3.2 | 12.9 | 0.00 | 0.00 | 0.00 | 35 | 1016.0 |
| 20260503223020 | 23 | 151 | 6.4 | 16.1 | 0.00 | 0.00 | 0.00 | 35 | 1016.1 |
| 20260503222518 | 23 | 153 | 6.4 | 16.1 | 0.00 | 0.00 | 0.00 | 35 | 1016.2 |
| 20260503222017 | 23 | 125 | 8.0 | 12.9 | 0.00 | 0.00 | 0.00 | 35 | 1016.4 |
| 20260503221516 | 23 | 128 | 6.4 | 12.9 | 0.00 | 0.00 | 0.00 | 36 | 1016.5 |
| 20260503221015 | 22 | 153 | 1.6 | 11.3 | 0.00 | 0.00 | 0.00 | 36 | 1016.6 |
| 20260503220518 | 23 | 215 | 6.4 | 11.3 | 0.00 | 0.00 | 0.00 | 36 | 1016.6 |
| 20260503220015 | 22 | 174 | 3.2 | 11.3 | 0.00 | 0.00 | 0.00 | 36 | 1016.6 |
| 20260503215514 | 22 | 176 | 6.4 | 16.1 | 0.00 | 0.00 | 0.00 | 36 | 1016.6 |
| 20260503215012 | 22 | 143 | 8.0 | 16.1 | 0.00 | 0.00 | 0.00 | 36 | 1016.7 |
| 20260503214532 | 22 | 125 | 3.2 | 14.5 | 0.00 | 0.00 | 0.00 | 37 | 1016.9 |
| 20260503214010 | 22 | 136 | 8.0 | 14.5 | 0.00 | 0.00 | 0.00 | 36 | 1017.1 |
| 20260503213610 | 22 | 204 | 3.2 | 12.9 | 0.00 | 0.00 | 0.00 | 36 | 1017.1 |
| 20260503213009 | 22 | 229 | 6.4 | 16.1 | 0.00 | 0.00 | 0.00 | 36 | 1017.2 |
| 20260503212510 | 22 | 165 | 8.0 | 16.1 | 0.00 | 0.00 | 0.00 | 36 | 1017.4 |
| 20260503212007 | 22 | 156 | 6.4 | 16.1 | 0.00 | 0.00 | 0.00 | 36 | 1017.5 |
| 20260503211505 | 22 | 115 | 6.4 | 16.1 | 0.00 | 0.00 | 0.00 | 36 | 1017.6 |
| 20260503211005 | 22 | 113 | 8.0 | 17.7 | 0.00 | 0.00 | 0.00 | 36 | 1017.8 |
| 20260503210506 | 22 | 128 | 8.0 | 17.7 | 0.00 | 0.00 | 0.00 | 36 | 1017.8 |
| 20260503210005 | 22 | 166 | 6.4 | 12.9 | 0.00 | 0.00 | 0.00 | 36 | 1017.8 |
| 20260503205504 | 22 | 166 | 4.8 | 16.1 | 0.00 | 0.00 | 0.00 | 37 | 1017.8 |
| 20260503205002 | 22 | 200 | 8.0 | 19.3 | 0.00 | 0.00 | 0.00 | 37 | 1018.1 |
| 20260503204601 | 22 | 99 | 11.3 | 19.3 | 0.00 | 0.00 | 0.00 | 37 | 1018.2 |
| 20260503204100 | 22 | 178 | 11.3 | 19.3 | 0.00 | 0.00 | 0.00 | 37 | 1018.3 |
| 20260503203559 | 22 | 199 | 8.0 | 16.1 | 0.00 | 0.00 | 0.00 | 37 | 1018.4 |
| 20260503203057 | 22 | 142 | 8.0 | 14.5 | 0.00 | 0.00 | 0.00 | 36 | 1018.5 |
| 20260503202557 | 21 | 176 | 8.0 | 14.5 | 0.00 | 0.00 | 0.00 | 38 | 1018.7 |
| 20260503202059 | 22 | 302 | 4.8 | 19.3 | 0.00 | 0.00 | 0.00 | 36 | 1018.8 |
| 20260503201555 | 22 | 125 | 9.7 | 16.1 | 0.00 | 0.00 | 0.00 | 37 | 1018.8 |
| 20260503201053 | 22 | 186 | 8.0 | 14.5 | 0.00 | 0.00 | 0.00 | 38 | 1018.9 |
| 20260503200553 | 21 | 244 | 8.0 | 16.1 | 0.00 | 0.00 | 0.00 | 38 | 1018.9 |
| 20260503200100 | 21 | 161 | 8.0 | 17.7 | 0.00 | 0.00 | 0.00 | 38 | 1019.0 |
| 20260503195551 | 21 | 178 | 9.7 | 17.7 | 0.00 | 0.00 | 0.00 | 38 | 1019.1 |
| 20260503195051 | 21 | 170 | 6.4 | 16.1 | 0.00 | 0.00 | 0.00 | 38 | 1019.1 |
| 20260503194601 | 21 | 148 | 9.7 | 19.3 | 0.00 | 0.00 | 0.00 | 37 | 1019.1 |
| 20260503194050 | 21 | 128 | 4.8 | 20.9 | 0.00 | 0.00 | 0.00 | 38 | 1019.2 |
| 20260503193549 | 21 | 182 | 9.7 | 20.9 | 0.00 | 0.00 | 0.00 | 38 | 1019.4 |
| 20260503193058 | 21 | 190 | 4.8 | 24.1 | 0.00 | 0.00 | 0.00 | 36 | 1019.4 |
| 20260503192548 | 21 | 159 | 6.4 | 24.1 | 0.00 | 0.00 | 0.00 | 36 | 1019.4 |
| 20260503192047 | 21 | 202 | 8.0 | 16.1 | 0.00 | 0.00 | 0.00 | 37 | 1019.3 |
| 20260503191549 | 21 | 220 | 6.4 | 16.1 | 0.00 | 0.00 | 0.00 | 38 | 1019.4 |
| 20260503191045 | 21 | 169 | 6.4 | 12.9 | 0.00 | 0.00 | 0.00 | 38 | 1019.5 |
| 20260503190545 | 21 | 163 | 6.4 | 14.5 | 0.00 | 0.00 | 0.00 | 38 | 1019.6 |
| 20260503190048 | 21 | 184 | 4.8 | 12.9 | 0.00 | 0.00 | 0.00 | 39 | 1019.6 |
| 20260503185543 | 21 | 133 | 9.7 | 14.5 | 0.00 | 0.00 | 0.00 | 38 | 1019.6 |
| 20260503185044 | 21 | 228 | 8.0 | 19.3 | 0.00 | 0.00 | 0.00 | 38 | 1019.6 |
| 20260503184557 | 21 | 205 | 8.0 | 19.3 | 0.00 | 0.00 | 0.00 | 37 | 1019.6 |
| 20260503184043 | 21 | 152 | 9.7 | 14.5 | 0.00 | 0.00 | 0.00 | 38 | 1019.6 |
| 20260503183541 | 21 | 138 | 8.0 | 14.5 | 0.00 | 0.00 | 0.00 | 36 | 1019.7 |
| 20260503183043 | 21 | 161 | 6.4 | 16.1 | 0.00 | 0.00 | 0.00 | 39 | 1019.6 |
| 20260503182541 | 21 | 131 | 8.0 | 17.7 | 0.00 | 0.00 | 0.00 | 38 | 1019.8 |
| 20260503182040 | 21 | 120 | 9.7 | 17.7 | 0.00 | 0.00 | 0.00 | 40 | 1019.9 |
| 20260503181557 | 20 | 222 | 9.7 | 16.1 | 0.00 | 0.00 | 0.00 | 39 | 1019.9 |
| 20260503181039 | 21 | 190 | 9.7 | 24.1 | 0.00 | 0.00 | 0.00 | 39 | 1020.1 |
| 20260503180539 | 21 | 138 | 9.7 | 24.1 | 0.00 | 0.00 | 0.00 | 39 | 1020.4 |
| 20260503180049 | 21 | 152 | 9.7 | 22.5 | 0.00 | 0.00 | 0.00 | 39 | 1020.4 |
| 20260503175536 | 21 | 165 | 9.7 | 20.9 | 0.00 | 0.00 | 0.00 | 39 | 1020.4 |
| 20260503175035 | 20 | 178 | 8.0 | 17.7 | 0.00 | 0.00 | 0.00 | 40 | 1020.2 |
| 20260503174545 | 20 | 170 | 9.7 | 17.7 | 0.00 | 0.00 | 0.00 | 40 | 1020.2 |
| 20260503174035 | 20 | 145 | 6.4 | 17.7 | 0.00 | 0.00 | 0.00 | 41 | 1020.4 |
| 20260503173535 | 20 | 167 | 4.8 | 12.9 | 0.00 | 0.00 | 0.00 | 40 | 1020.4 |
| 20260503173046 | 20 | 157 | 4.8 | 12.9 | 0.00 | 0.00 | 0.00 | 41 | 1020.5 |
| 20260503172535 | 20 | 187 | 4.8 | 12.9 | 0.00 | 0.00 | 0.00 | 41 | 1020.6 |
| 20260503172033 | 20 | 150 | 8.0 | 14.5 | 0.00 | 0.00 | 0.00 | 43 | 1020.7 |
| 20260503171533 | 19 | 184 | 1.6 | 8.0 | 0.00 | 0.00 | 0.00 | 48 | 1020.7 |
| 20260503171033 | 18 | 136 | 0.0 | 12.9 | 0.00 | 0.00 | 0.00 | 49 | 1020.6 |
| 20260503170532 | 19 | 248 | 6.4 | 12.9 | 0.00 | 0.00 | 0.00 | 48 | 1020.8 |
| 20260503151010 | 15 | 27 | 1.6 | 6.4 | 0.00 | 0.00 | 0.00 | 64 | 1021.1 |
| 20260503150512 | 14 | 27 | 1.6 | 6.4 | 0.00 | 0.00 | 0.00 | 64 | 1021.1 |
| 20260503131046 | 10 | 31 | 0.0 | 3.2 | 0.00 | 0.03 | 0.00 | 79 | 1020.8 |
| 20260503130550 | 10 | 31 | 0.0 | 8.0 | 0.00 | 0.03 | 0.00 | 78 | 1020.6 |
| 20260503110532 | 10 | 111 | 0.0 | 1.6 | 0.00 | 0.03 | 0.00 | 84 | 1020.3 |
| 20260503081534 | 11 | 134 | 0.0 | 0.0 | 0.00 | 0.28 | 0.00 | 82 | 1021.1 |
| 20260503081015 | 11 | 134 | 0.0 | 1.6 | 0.00 | 0.28 | 0.00 | 82 | 1021.0 |
| 20260503080515 | 11 | 134 | 0.0 | 3.2 | 0.00 | 0.28 | 0.00 | 81 | 1021.0 |
| 20260503072516 | 11 | 134 | 0.0 | 0.0 | 0.00 | 0.28 | 0.00 | 78 | 1021.5 |
| 20260503072011 | 11 | 134 | 0.0 | 0.0 | 0.00 | 0.28 | 0.00 | 77 | 1021.5 |
| 20260503071509 | 12 | 134 | 0.0 | 0.0 | 0.00 | 0.28 | 0.00 | 76 | 1021.5 |
| 20260503071009 | 12 | 134 | 0.0 | 3.2 | 0.00 | 0.28 | 0.00 | 74 | 1021.6 |
| 20260503070508 | 12 | 134 | 0.0 | 3.2 | 0.00 | 0.28 | 0.00 | 75 | 1021.4 |
| 20260503055100 | 13 | 7 | 0.0 | 4.8 | 0.00 | 0.28 | 0.28 | 69 | 1021.0 |
| 20260503054558 | 13 | 7 | 1.6 | 6.4 | 0.00 | 0.28 | 0.28 | 69 | 1020.9 |
| 20260503054056 | 13 | 7 | 0.0 | 1.6 | 0.00 | 0.28 | 0.28 | 68 | 1020.9 |
| 20260503053556 | 13 | 7 | 0.0 | 3.2 | 0.00 | 0.28 | 0.28 | 68 | 1020.9 |
| 20260503053057 | 13 | 7 | 0.0 | 6.4 | 0.00 | 0.28 | 0.28 | 66 | 1020.9 |
| 20260503052556 | 13 | 7 | 1.6 | 6.4 | 0.00 | 0.28 | 0.28 | 66 | 1020.9 |
| 20260503052058 | 13 | 7 | 0.0 | 8.0 | 0.00 | 0.28 | 0.28 | 66 | 1021.0 |
| 20260503051558 | 13 | 7 | 3.2 | 8.0 | 0.00 | 0.28 | 0.28 | 66 | 1021.0 |
| 20260503051055 | 13 | 7 | 0.0 | 1.6 | 0.00 | 0.28 | 0.28 | 68 | 1021.1 |
| 20260503050555 | 13 | 7 | 0.0 | 1.6 | 0.00 | 0.28 | 0.28 | 65 | 1021.1 |
| 20260503050056 | 14 | 7 | 0.0 | 3.2 | 0.00 | 0.28 | 0.28 | 64 | 1021.1 |
| 20260503045555 | 14 | 7 | 0.0 | 3.2 | 0.00 | 0.28 | 0.28 | 63 | 1021.0 |
| 20260503045056 | 14 | 7 | 0.0 | 3.2 | 0.00 | 0.28 | 0.28 | 63 | 1021.0 |
| 20260503044607 | 14 | 7 | 0.0 | 8.0 | 0.00 | 0.28 | 0.28 | 63 | 1020.9 |
| 20260503044056 | 15 | 7 | 0.0 | 9.7 | 0.00 | 0.28 | 0.28 | 61 | 1020.8 |
| 20260503043554 | 15 | 358 | 6.4 | 9.7 | 0.00 | 0.28 | 0.28 | 63 | 1020.8 |
| 20260503043058 | 15 | 15 | 3.2 | 6.4 | 0.00 | 0.28 | 0.28 | 65 | 1020.8 |
| 20260503042554 | 14 | 58 | 1.6 | 3.2 | 0.00 | 0.28 | 0.28 | 64 | 1020.8 |
| 20260503042054 | 14 | 58 | 0.0 | 3.2 | 0.00 | 0.28 | 0.28 | 64 | 1020.7 |
| 20260503041554 | 15 | 58 | 0.0 | 3.2 | 0.00 | 0.28 | 0.28 | 64 | 1020.8 |
| 20260503041056 | 15 | 58 | 1.6 | 3.2 | 0.00 | 0.28 | 0.28 | 65 | 1020.8 |
| 20260503040553 | 15 | 58 | 0.0 | 6.4 | 0.00 | 0.28 | 0.28 | 65 | 1020.8 |
| 20260503035554 | 15 | 58 | 0.0 | 3.2 | 0.00 | 0.28 | 0.28 | 67 | 1020.8 |
| 20260503035053 | 14 | 58 | 0.0 | 0.0 | 0.00 | 0.28 | 0.28 | 66 | 1020.9 |
| 20260503034601 | 15 | 58 | 0.0 | 0.0 | 0.00 | 0.28 | 0.28 | 66 | 1020.9 |
| 20260503034053 | 15 | 58 | 0.0 | 3.2 | 0.00 | 0.28 | 0.28 | 65 | 1020.9 |
| 20260503033556 | 15 | 58 | 0.0 | 3.2 | 0.00 | 0.28 | 0.28 | 66 | 1020.8 |
| 20260503033055 | 15 | 58 | 0.0 | 3.2 | 0.00 | 0.28 | 0.28 | 65 | 1020.8 |
| 20260503032554 | 15 | 58 | 0.0 | 3.2 | 0.00 | 0.28 | 0.28 | 64 | 1020.8 |